Preview of NWS' New Version of Forecast
This preview is not operational and should not be used for support decisions.

Regional Weather Roundup (RWR)

Issued by National Weather Service (NWS)

                            
000
ASUS45 KABQ 240601
RWRNM 
NEW MEXICO REGIONAL WEATHER ROUNDUP
NATIONAL WEATHER SERVICE ALBUQUERQUE NM
1200 AM MDT FRI MAY 24 2019

NOTE: "FAIR" MEANS FEW OR NO CLOUDS BELOW 12,000 FEET AGL WITH NO
       SIGNIFICANT WEATHER OR OBSTRUCTIONS TO VISION.

      THIS PRODUCT IS RELEASED AS TWO VERSIONS.  ONE VERSION NEAR
      THE TOP OF THE HOUR CONTAINING PRELIMINARY DATA FROM ALBUQUERQUE
      AND OTHER STATIONS.  A FINAL VERSION WITH ADDITIONAL DATA IS 
      ISSUED ABOUT 10 MINUTES AFTER THE HOUR.
 
NMZ501-503-504-510>518-240700-
NORTHWEST PLATEAU/NORTHCENTRAL MOUNTAINS
  
CITY           SKY/WX    TMP DP  RH WIND       PRES   REMARKS
FARMINGTON     FAIR      41  33  73 NE7       30.10S                  
6HR MIN TEMP:  41; 6HR MAX TEMP:  57;                                

LOS ALAMOS       N/A     46  18  32 CALM      30.14S                  
SANTA FE       FAIR      41  19  41 N6        30.10S                  
6HR MIN TEMP:  40; 6HR MAX TEMP:  65;                                

TAOS           FAIR      37  21  52 NE8       30.16F WCI  31          
ANGEL FIRE       N/A     38  20  48 S7        30.16S WCI  32          

$$
NMZ402-403-502-505>509-240700-
WESTCENTRAL MOUNTAINS/SOUTHWEST MOUNTAINS
  
CITY           SKY/WX    TMP DP  RH WIND       PRES   REMARKS
GALLUP         FAIR      34  27  75 E3        30.13S                  
6HR MIN TEMP:  34; 6HR MAX TEMP:  55;                                

GRANTS         FAIR      39  22  51 CALM      30.16S                  
SILVER CITY    FAIR      44  14  29 NW9       30.06F                  

$$
NMZ407-409-411-412-240700-
SOUTHERN DESERTS
  
CITY           SKY/WX    TMP DP  RH WIND       PRES   REMARKS
DEMING         FAIR      58  17  20 CALM      30.00S                  
6HR MIN TEMP:  56; 6HR MAX TEMP:  75;                                

LAS CRUCES     FAIR      60  19  20 N8        30.01S                  
ALAMOGORDO     FAIR      61  16  17 NE7       30.00R                  
T OR C         FAIR      58   9  14 NW9       30.02S                  
6HR MIN TEMP:  58; 6HR MAX TEMP:  75;                                


$$
NMZ519>523-240700-
CENTRAL VALLEYS/CENTRAL HIGHLANDS
  
CITY           SKY/WX    TMP DP  RH WIND       PRES   REMARKS
ALBUQUERQUE    FAIR      57  22  25 N10       30.07S                  
6HR MIN TEMP:  57; 6HR MAX TEMP:  70;                                

DOUBLE EAGLE   FAIR      48  22  36 N8        30.09S                  
MORIARTY ARPT  FAIR      38  20  49 N5        30.10R WCI  34          
6HR MIN TEMP:  36; 6HR MAX TEMP:  68;                                

CLINES CORNERS FAIR      45  18  34 NW18G28   30.08F                  
6HR MIN TEMP:  44; 6HR MAX TEMP:  63;                                

BELEN          NOT AVBL                                               
SOCORRO        FAIR      57  16  19 NE5       30.03R                  
6HR MIN TEMP:  57; 6HR MAX TEMP:  73;                                


$$
NMZ524>526-539-540-240700-
SOUTHCENTRAL MOUNTAINS
  
CITY           SKY/WX    TMP DP  RH WIND       PRES   REMARKS
RUIDOSO        FAIR      52  10  19 W3        30.11F                  

$$
NMZ527>531-240700-
NORTHEAST HIGHLANDS/NORTHEAST PLAINS
  
CITY           SKY/WX    TMP DP  RH WIND       PRES   REMARKS
LAS VEGAS      FAIR      45  15  30 NW13      30.02F                  
6HR MIN TEMP:  43; 6HR MAX TEMP:  65;                                

RATON          FAIR      48  22  35 NW8       30.03F                  
6HR MIN TEMP:  46; 6HR MAX TEMP:  71;                                

CLAYTON        FOG       46  45  96 NW6       30.01F VSB 1/4          
6HR MIN TEMP:  46; 6HR MAX TEMP:  53;                                


$$
NMZ532>537-240700-
EASTCENTRAL PLAINS
  
CITY           SKY/WX    TMP DP  RH WIND       PRES   REMARKS
SANTA ROSA     FAIR      58  19  21 NW7       29.96R                  
TUCUMCARI      FAIR      49  48  97 VRB5      29.95S                  
6HR MIN TEMP:  49; 6HR MAX TEMP:  68;                                

CANNON AFB     NOT AVBL                                               
CLOVIS AIRPORT FAIR      54  51  90 CALM      29.98F                  

$$
NMZ028-029-538-240700-
SOUTHEAST PLAINS
  
CITY           SKY/WX    TMP DP  RH WIND       PRES   REMARKS
ROSWELL        FAIR      66  30  26 E6        29.93R                  
6HR MIN TEMP:  65; 6HR MAX TEMP:  92;                                

ARTESIA        FAIR      68  27  21 N6        29.94R                  
CARLSBAD       FAIR      67  28  23 NW9       29.90R                  
6HR MIN TEMP:  67; 6HR MAX TEMP:  94;                                

HOBBS          CLOUDY    77  64  65 SW13G20   29.95F                  


$$